星链-30932 (STARLINK-30932 )

导读

STARLINK-30932是美国SpaceX星链星座的成员,于2023年12月7日发射入轨,属于低轨卫星互联网星座的组网卫星。星链星座通过批量发射低轨卫星,旨在为全球提供高速低延迟互联网覆盖服务,这颗卫星承担着补充星座组网容量、提升覆盖稳定性的作用,服务全球各类民用与商用联网场景。

Basic Information
目录编号:
58523
目录名称:
STARLINK-30932
国际标识:
2023-191R
轨道中心:
EARTH
卫星名称:
星链-30932
卫星全名:
星链-30932 (STARLINK-30932 )
卫星状态:
在轨 (已飞行1009 天)
发射日期:
2023-12-07 UTC
国别 :
美国 (US)
星等 :
--
This satellite is enrolled in the Space Conjunction Data Service (SCDS) and the current flight risk assessment level is: High Risk
Orbit Information
数据来源 国际轨道数据 AOE轨道数据
星历时间 2026-09-11T09:20:10+0800
12小时前
查看轨道信息
2026-09-06T00:00:00+0800
5天前
查看轨道信息
半长轴 6861.19km 6861.254km
偏心率 0.0001315 0.0001151
轨道倾角 43.004° 43.004°
近地点辐角 260.822° 263.010°
升交点赤经 136.330° 166.727°
平近点角 99.248° 306.618°
近地点 482.15km 482.327km
远地点 483.956km 483.907km
周期 94.267分钟 94.268分钟
每日圈数 15.275789 15.275574
Detailed Information
固有亮度:
5
最大亮度:
0.3
卫星平台:
Starlink v2.0 mini
覆盖范围:
全球
运营商:
太空探索技术公司
运营商所在国:
美国
制造商(研发单位):
太空探索技术公司
制造商所在国:
美国
使用方式:
暂无
Satellite Introduction
星链(Starlink)计划是由太空探索技术公司(SpaceX)提出的一个巨型低轨卫星互联网星座项目,计划在2019年至2024年间在太空搭建由约1.2万颗卫星组成的“星链”网络,其中1584颗将部署在地球上空550千米处的近地轨道,并从2020年开始工作。该卫星仍在工作。
2D Orbit Map
3D Orbit Map
Orbit Altitude Analysis Chart
Orbit Inclination Analysis Chart
Orbit Comprehensive Analysis Chart
View Comprehensive Chart
Conjunction Data List
Event ID Objects TCA Miss Dist (km) Collision Risk Probability Collision Risk Index (CRI) Action
CDM_260912-084805-852306-718321
2026-09-12T
08:48:05+0000
0.377 km
远距离
2.957632E-4 高风险 0.84
CDM_260911-102905-852306-438322
2026-09-11T
10:29:27+0000
0.441 km
远距离
1.69023E-4 高风险 0.8
CDM_260911-173305-852306-438321
2026-09-11T
17:33:08+0000
0.936 km
远距离
1.905687E-5 中风险 0.61
CDM_260912-203405-790305-852321
2026-09-12T
20:34:50+0000
1.371 km
极远距离
6.931981E-6 低风险 0.52
CDM_260910-050905-852306-409523
2026-09-10T
05:09:53+0000
1.572 km
极远距离
4.897122E-6 低风险 0.49
CDM_260910-042205-852306-409523
2026-09-10T
04:22:45+0000
1.752 km
极远距离
3.520149E-6 低风险 0.46
CDM_260912-115705-790305-852322
2026-09-12T
11:57:00+0000
1.845 km
极远距离
2.769151E-6 低风险 0.44
CDM_260912-220805-852306-718321
2026-09-12T
22:08:23+0000
1.900 km
极远距离
2.569697E-6 低风险 0.43
CDM_260912-234205-852306-718321
2026-09-12T
23:42:32+0000
1.927 km
极远距离
2.476099E-6 低风险 0.43
CDM_260913-032605-852306-436821
2026-09-13T
03:26:51+0000
2.232 km
极远距离
1.980768E-6 低风险 0.41
Miss Distance Evolution Trend with All Objects
Collision Probability Evolution Trend with All Objects